User: anonymous   Login
Location: Unspecified
(0.0000°N, 0.0000°E)
Time: 04:23:10
(UTC+00:00)
Language:

FALCON 9 R/B - Orbit

View from above orbital plane
View from above orbital plane
View from above satellite
View from above satellite

Ground track
Ground track

The orbit data is extracted from the following two-line orbital elements,

1 37253U 10066K   14356.09158293  .00020955  00000-0  18661-2 0  2852
2 37253 034.5039 254.7416 4348315 050.7707 340.4879 06.78193031 98267
Epoch (UTC): 22 December 2014 02:11:52
Eccentricity: 0.4348315
inclination: 34.5039°
perigee height: 285 km
apogee height: 10538 km
right ascension of ascending node: 254.7416°
argument of perigee: 50.7707°
revolutions per day: 6.78193031
mean anomaly at epoch: 340.4879°
orbit number at epoch: 9826

The dashed part of the orbit path shows where the satellite is in the earth's shadow,  

DLR